Location: Unspecified
(54.1780°N, 0.0000°E)
Time: 04:54:21
(UTC+00:00)

Altair - Pass Details

Date: 27 June 2019
Orbit: 1501 x 1683 km, 47.2° (Epoch: 21 August)

Event Time Altitude Azimuth Distance (km) Brightness Sun altitude
Rises 22:31:58 0° 273° (W) 4,758 10.4 -10.1°
Reaches altitude 10° 22:35:06 10° 269° (W) 3,798 9.8 -10.2°
Maximum altitude 22:44:21 52° 197° (SSW) 1,959 7.8 -10.7°
Drops below altitude 10° 22:53:54 10° 125° (SE) 3,917 9.2 -11.1°
Sets 22:57:11 0° 121° (ESE) 4,917 9.7 -11.2°
